Location: Passau
(48.5721°N, 13.4363°E)
Time: 14:14:32
(UTC+01:00)

ISS - Pass Details

Date: 13 November 2017
Orbit: 402 x 407 km, 51.6° (Epoch: 23 November)

Event Time Altitude Azimuth Distance (km) Brightness Sun altitude
Exits shadow 05:02:22 61° 63° (ENE) 460 -3.4 -21.3°
Drops below altitude 10° 05:05:15 10° 101° (ESE) 1,454 0.1 -20.8°
Sets 05:07:20 0° 104° (ESE) 2,312 1.5 -20.5°
